TimeEST,TemperatureF,Dew PointF,Humidity,Sea Level PressureIn,VisibilityMPH,Wind Direction,Wind SpeedMPH,Gust SpeedMPH,PrecipitationIn,Events,Conditions,WindDirDegrees,DateUTC
12:15 AM,40.3,36.9,88,30.11,10.0,Calm,Calm,-,N/A,,Overcast,0,2012-12-03 05:15:00
12:35 AM,40.5,36.5,86,30.10,10.0,SSE,3.5,-,N/A,,Overcast,160,2012-12-03 05:35:00
12:55 AM,40.5,36.1,85,30.10,10.0,South,4.6,-,N/A,,Overcast,170,2012-12-03 05:55:00
1:14 AM,40.3,36.0,85,30.10,10.0,SSE,4.6,-,N/A,,Overcast,160,2012-12-03 06:14:00
1:35 AM,40.1,36.1,86,30.10,10.0,South,3.5,-,N/A,,Overcast,170,2012-12-03 06:35:00
1:55 AM,39.9,35.8,85,30.12,10.0,South,6.9,-,N/A,,Overcast,190,2012-12-03 06:55:00
2:15 AM,39.7,35.8,86,30.13,10.0,South,4.6,-,N/A,,Overcast,170,2012-12-03 07:15:00
2:35 AM,39.6,36.1,88,30.13,10.0,SSE,4.6,-,N/A,,Overcast,160,2012-12-03 07:35:00
2:55 AM,39.4,36.1,88,30.12,10.0,SSE,5.8,-,N/A,,Overcast,160,2012-12-03 07:55:00
3:15 AM,39.2,36.3,89,30.12,10.0,SSE,5.8,-,N/A,,Overcast,160,2012-12-03 08:15:00
3:35 AM,39.2,36.5,90,30.10,10.0,SSE,8.1,-,N/A,,Overcast,160,2012-12-03 08:35:00
3:55 AM,39.2,36.5,90,30.10,7.0,SSE,5.8,-,N/A,,Overcast,150,2012-12-03 08:55:00
4:15 AM,39.2,36.7,91,30.08,7.0,SSE,5.8,-,N/A,,Overcast,150,2012-12-03 09:15:00
4:35 AM,39.4,37.0,91,30.07,7.0,SE,5.8,-,N/A,,Overcast,140,2012-12-03 09:35:00
4:55 AM,39.4,37.4,93,30.07,7.0,South,4.6,-,N/A,,Overcast,170,2012-12-03 09:55:00
5:15 AM,39.4,37.4,93,30.07,5.0,SSE,4.6,-,N/A,,Overcast,160,2012-12-03 10:15:00
5:35 AM,39.4,37.6,93,30.06,5.0,SE,5.8,-,N/A,,Overcast,140,2012-12-03 10:35:00
5:55 AM,39.2,37.6,94,30.06,5.0,SE,5.8,-,N/A,,Overcast,140,2012-12-03 10:55:00
6:15 AM,39.2,37.8,95,30.06,5.0,SSE,5.8,-,N/A,,Overcast,160,2012-12-03 11:15:00
6:35 AM,39.2,37.8,95,30.06,5.0,SSE,8.1,-,N/A,,Overcast,150,2012-12-03 11:35:00
6:55 AM,39.4,37.9,95,30.05,4.0,SSE,6.9,-,N/A,,Overcast,150,2012-12-03 11:55:00
7:15 AM,39.4,38.3,96,30.05,4.0,SE,8.1,-,N/A,,Overcast,140,2012-12-03 12:15:00
7:34 AM,39.6,38.3,95,30.05,4.0,SE,6.9,-,N/A,,Overcast,140,2012-12-03 12:34:00
7:55 AM,40.1,39.0,96,30.04,3.0,SE,6.9,-,N/A,,Overcast,140,2012-12-03 12:55:00
8:15 AM,40.3,39.2,96,30.04,2.0,SE,5.8,-,N/A,,Overcast,130,2012-12-03 13:15:00
8:35 AM,41.0,39.7,95,30.03,2.0,SE,9.2,-,N/A,,Overcast,130,2012-12-03 13:35:00
8:55 AM,41.9,40.3,94,30.02,2.5,SE,8.1,-,N/A,,Overcast,130,2012-12-03 13:55:00
9:15 AM,42.4,41.0,95,30.01,2.5,SE,9.2,-,N/A,,Overcast,130,2012-12-03 14:15:00
9:35 AM,43.7,41.5,92,30.01,3.0,ESE,8.1,-,N/A,,Overcast,120,2012-12-03 14:35:00
9:55 AM,44.8,42.3,91,30.00,4.0,SE,8.1,-,N/A,,Overcast,130,2012-12-03 14:55:00
10:15 AM,46.0,42.8,88,29.99,4.0,ESE,8.1,-,N/A,,Overcast,120,2012-12-03 15:15:00
10:35 AM,47.7,43.7,86,29.98,4.0,ESE,10.4,-,N/A,,Mostly Cloudy,120,2012-12-03 15:35:00
10:55 AM,49.5,44.6,83,29.97,5.0,SE,6.9,-,N/A,,Haze,140,2012-12-03 15:55:00
11:15 AM,50.4,45.0,82,29.96,5.0,ESE,8.1,-,N/A,,Haze,120,2012-12-03 16:15:00
11:35 AM,52.9,46.2,78,29.95,7.0,SSE,10.4,16.1,N/A,,Clear,160,2012-12-03 16:35:00
11:55 AM,53.8,47.3,79,29.94,7.0,SE,12.7,18.4,N/A,,Clear,140,2012-12-03 16:55:00
12:15 PM,52.9,47.3,81,29.93,5.0,SE,12.7,17.3,N/A,,Haze,140,2012-12-03 17:15:00
12:35 PM,52.9,48.0,84,29.91,5.0,SSE,15.0,23.0,N/A,,Haze,150,2012-12-03 17:35:00
12:55 PM,53.6,48.4,82,29.90,5.0,SSE,16.1,25.3,N/A,,Haze,160,2012-12-03 17:55:00
1:15 PM,54.0,48.6,82,29.89,7.0,South,11.5,18.4,N/A,,Scattered Clouds,170,2012-12-03 18:15:00
1:36 PM,53.1,48.6,85,29.87,5.0,South,15.0,25.3,N/A,,Mostly Cloudy,170,2012-12-03 18:36:00
1:55 PM,53.6,48.7,84,29.86,7.0,SSE,17.3,29.9,N/A,,Mostly Cloudy,160,2012-12-03 18:55:00
2:15 PM,53.6,49.5,86,29.85,7.0,SSE,12.7,20.7,N/A,,Mostly Cloudy,160,2012-12-03 19:15:00
2:36 PM,53.4,49.5,86,29.83,7.0,SE,15.0,18.4,N/A,,Overcast,140,2012-12-03 19:36:00
2:55 PM,53.6,50.0,88,29.83,7.0,SSE,11.5,17.3,N/A,,Overcast,150,2012-12-03 19:55:00
3:15 PM,54.1,50.2,86,29.81,7.0,SSE,12.7,19.6,N/A,,Overcast,150,2012-12-03 20:15:00
3:35 PM,54.5,50.9,88,29.80,7.0,SSE,18.4,24.2,N/A,,Overcast,160,2012-12-03 20:35:00
3:55 PM,55.2,51.1,86,29.79,7.0,SSE,17.3,24.2,N/A,,Overcast,160,2012-12-03 20:55:00
4:15 PM,55.4,51.4,87,29.79,7.0,SSE,15.0,25.3,N/A,,Overcast,160,2012-12-03 21:15:00
4:35 PM,55.0,51.4,88,29.79,7.0,SSE,13.8,25.3,N/A,,Overcast,160,2012-12-03 21:35:00
4:55 PM,55.4,51.8,88,29.78,7.0,SSE,18.4,27.6,N/A,,Overcast,160,2012-12-03 21:55:00
5:14 PM,55.6,52.2,88,29.78,7.0,SSE,17.3,25.3,N/A,,Overcast,160,2012-12-03 22:14:00
5:35 PM,55.9,52.5,88,29.77,10.0,SSE,16.1,24.2,N/A,,Overcast,160,2012-12-03 22:35:00
5:55 PM,56.3,52.9,88,29.76,10.0,SSE,12.7,20.7,N/A,,Overcast,160,2012-12-03 22:55:00
6:14 PM,56.7,53.2,88,29.75,10.0,SSE,15.0,23.0,N/A,,Overcast,160,2012-12-03 23:14:00
6:35 PM,56.8,53.4,88,29.74,10.0,South,17.3,28.8,N/A,,Overcast,170,2012-12-03 23:35:00
6:55 PM,57.4,53.8,88,29.73,10.0,South,19.6,28.8,N/A,,Overcast,170,2012-12-03 23:55:00
7:15 PM,58.1,54.3,87,29.73,10.0,South,17.3,21.9,N/A,,Overcast,170,2012-12-04 00:15:00
7:34 PM,58.1,54.5,88,29.73,10.0,South,12.7,18.4,N/A,,Overcast,170,2012-12-04 00:34:00
7:55 PM,58.6,54.7,87,29.71,10.0,South,16.1,26.5,N/A,,Overcast,170,2012-12-04 00:55:00
8:15 PM,59.9,55.6,86,29.70,10.0,South,15.0,25.3,N/A,,Overcast,170,2012-12-04 01:15:00
8:35 PM,60.6,56.1,85,29.69,10.0,South,15.0,23.0,N/A,,Overcast,170,2012-12-04 01:35:00
8:55 PM,60.4,56.3,86,29.68,10.0,South,17.3,21.9,N/A,,Mostly Cloudy,170,2012-12-04 01:55:00
9:15 PM,60.8,56.5,86,29.67,10.0,South,13.8,21.9,N/A,,Scattered Clouds,180,2012-12-04 02:15:00
9:35 PM,61.5,56.7,84,29.66,10.0,South,10.4,19.6,N/A,,Scattered Clouds,170,2012-12-04 02:35:00
9:55 PM,61.9,56.7,83,29.66,10.0,SSW,16.1,26.5,N/A,,Mostly Cloudy,200,2012-12-04 02:55:00
10:15 PM,62.1,56.3,81,29.65,10.0,SSW,15.0,24.2,N/A,,Overcast,200,2012-12-04 03:15:00
10:35 PM,62.1,56.3,81,29.66,10.0,SSW,16.1,24.2,N/A,,Mostly Cloudy,200,2012-12-04 03:35:00
10:55 PM,62.6,57.0,82,29.66,10.0,SSW,19.6,26.5,N/A,,Mostly Cloudy,200,2012-12-04 03:55:00
11:15 PM,62.6,57.2,82,29.66,10.0,SSW,17.3,25.3,N/A,,Overcast,210,2012-12-04 04:15:00
11:35 PM,62.6,57.0,82,29.67,10.0,SW,18.4,25.3,N/A,,Overcast,220,2012-12-04 04:35:00
11:55 PM,60.6,55.8,84,29.69,10.0,WSW,21.9,31.1,N/A,,Overcast,240,2012-12-04 04:55:00